Location: El Lindero
(10.3057°N, 67.3712°W)
Time: 02:35:22
(UTC+00:00)

Daily predictions for brighter satellites

Satellite Brightness Start Highest point End
(mag) Time Altitude Azimuth Time Altitude Azimuth Time Altitude Azimuth
Cosmos 1805 3.4 00:01:07 10° NNE 00:04:37 44° E 00:05:14 40° ESE
Cosmos 1697 Rocket 3.6 00:00:22 10° NNE 00:05:10 29° ENE 00:06:31 26° E
NATO 3D Rocket 4.0 00:02:10 10° W 00:06:42 50° NNW 00:11:38 11° ENE
DELTA 2 DEB (DPAF) 3.8 00:04:54 10° NNE 00:09:05 74° ESE 00:13:10 11° S
Cosmos 44 Rocket 3.0 00:04:33 10° NNW 00:09:14 78° ENE 00:11:18 33° SSE
SWIFT 3.8 00:08:17 10° SSW 00:10:16 20° S 00:10:16 20° S
SPOT 1/Viking Rocket 3.5 00:09:07 25° SSE 00:12:03 66° ENE 00:17:07 10° N
Cosmos 1805 Rocket 4.2 00:09:31 10° NNW 00:13:51 56° W 00:17:56 11° S
SL-8 R/B 3.8 00:09:29 10° NNW 00:14:10 61° NE 00:15:32 42° ESE
Cosmos 1733 4.3 00:10:53 10° NNW 00:14:11 39° W 00:17:02 13° SSW
Ariane H10+ 4.2 00:06:58 10° SW 00:14:12 41° SSE 00:22:07 26° ESE
Cosmos 1674 3.3 00:17:37 36° NE 00:17:37 36° NE 00:19:58 10° NNE
Cosmos 1980 Rocket 3.9 00:19:28 10° NNE 00:22:10 16° ENE 00:22:10 16° ENE
FALCON 9 R/B 3.7 00:19:53 10° NNW 00:24:14 34° NE 00:28:29 24° E
Cosmos 1666 Rocket 3.9 00:20:47 10° NNE 00:24:33 44° ENE 00:24:33 44° ENE
ARIANE 5 R/B 3.4 00:13:11 10° W 00:25:15 34° SSW 00:26:13 31° S
Sich 1 4.5 00:21:25 10° NNW 00:25:19 35° W 00:29:10 10° SSW
Haruka 4.4 00:11:53 10° WNW 00:28:45 47° SW 00:31:16 30° S
Cosmos 2026 Rocket 4.3 00:22:35 10° SSW 00:28:48 65° W 00:34:54 10° N
Resurs 01 Rocket 2.0 00:31:19 47° NE 00:31:19 47° NE 00:35:06 10° N
FUSE 4.0 00:28:07 10° SW 00:33:18 55° SSE 00:33:18 55° SSE
GPS 2-12 Rocket1 4.4 00:29:24 10° WNW 00:33:27 34° N 00:35:25 23° NE
Cosmos 2360 4.2 00:29:12 10° NNW 00:34:55 79° WSW 00:37:02 40° S
ATLAS CENTAUR R/B 4.0 00:24:00 10° NNW 00:36:44 83° ENE 00:40:38 40° SE
SJ-6B 4.2 00:36:42 25° SW 00:37:53 31° W 00:41:06 10° NW
Ariane 3 Deb 3.7 00:38:50 10° WSW 00:40:30 27° WSW 00:40:30 27° WSW
CZ-4B R/B 2.9 00:41:06 63° SSE 00:41:58 83° ENE 00:47:14 10° N
GPS 2-15 Rocket1 3.1 00:39:21 10° WSW 00:44:10 85° NNW 00:44:10 85° NNW
CZ-4 R/B 2.7 00:46:35 31° WSW 00:47:16 33° W 00:50:49 10° NW
Centaur D-1AR AC-39 3.3 00:53:04 10° WNW 00:56:39 37° N 01:01:10 18° ENE
Lacrosse 5 rocket 2.7 00:53:20 10° NNW 00:55:47 35° NNW 00:55:47 35° NNW
MOS 1-B Rocket 4.1 01:04:12 67° S 01:05:12 86° WSW 01:11:21 10° NNW
Centaur D AC-29 4.5 01:02:18 10° NW 01:08:13 33° NNE 10:46:13 10° SE
USA 59 Rocket 3.9 01:12:10 10° W 01:14:25 11° WSW 01:16:51 10° SW
VEP-3 4.0 01:11:41 10° W 01:16:24 26° SW 01:16:24 26° SW
Okean O Rocket 4.2 01:40:18 18° WNW 01:40:18 18° WNW 01:41:50 10° NW
Cosmos 1980 Rocket 4.3 02:01:45 10° NW 02:03:57 22° NW 02:03:57 22° NW
SL-16 R/B 4.5 06:43:03 22° ENE 06:43:08 22° ENE 06:47:47 10° NNE
Lacrosse 5 4.0 07:23:06 21° E 07:23:06 21° E 07:25:25 10° ENE
CZ-2C R/B 4.2 07:28:18 10° NNE 07:30:32 27° NE 07:30:32 27° NE
Gbstr 26 Del rocket 4.2 07:52:26 52° NNW 07:52:26 52° NNW 07:57:51 10° NNE
PAYLOAD A 4.3 07:48:51 10° NNE 07:53:37 70° NE 07:53:37 70° NE
Iridium 4 Rocket 4.0 07:51:23 10° N 07:54:57 51° N 07:54:57 51° N
Cosmos 1943 Rocket 4.1 07:53:38 16° SE 07:56:28 24° ESE 08:00:52 10° NE
ARIANE 5 R/B 4.4 07:58:05 38° SSE 07:58:05 38° SSE 08:13:58 10° E
Cosmos 1758 Rocket 4.2 08:07:08 50° N 08:07:08 50° N 08:10:24 10° N
GPS 2-17 Rocket1 4.2 08:08:05 37° SE 08:08:05 37° SE 08:11:34 10° E
Aurora 2 Rocket 4.3 08:08:15 28° NW 08:09:28 31° N 08:15:22 10° NE
Thor Agena Rocket 3.4 08:05:41 10° N 08:10:55 81° WNW 08:10:58 80° W
Skynet4D Del rocket 4.4 08:09:46 54° SW 08:11:53 80° SSE 08:20:18 10° ENE
Cosmos 1666 4.1 08:14:02 31° E 08:14:02 31° E 08:17:05 10° NNE
Cosmos 2058 Rocket 3.8 08:13:09 10° N 08:16:07 42° NNW 08:16:07 42° NNW
Cosmos 2278 Rocket 2.1 08:21:15 52° SSW 08:22:43 89° W 08:28:23 10° NNE
Ariane H10-3 3.2 08:26:52 17° SE 08:26:52 17° SE 08:28:01 10° SE
SL-16 R/B 3.5 08:28:07 29° WNW 08:28:07 29° WNW 08:31:55 10° NW
Cosmos 1500 3.4 08:29:08 55° N 08:29:08 55° N 08:31:52 10° N
ARIANE 5 R/B 4.4 08:23:40 31° WSW 08:28:54 37° SSW 08:35:22 10° SE
Ariane H10-3 4.3 08:05:04 10° W 08:30:40 41° SSW 08:35:25 10° SE
SWIFT 3.4 08:35:16 23° NW 08:37:08 37° NNE 08:40:50 10° E
Cosmos 1862 3.7 08:38:08 42° NW 08:38:08 42° NW 08:41:08 10° N
Cosmos 44 4.1 08:36:21 22° S 08:39:40 54° ESE 08:44:54 10° NE
H-2A R/B 1.9 08:35:10 10° N 08:40:20 83° WNW 08:43:06 28° SSW
CSL-04 DEB 4.1 08:37:18 10° N 08:41:03 85° WNW 08:41:58 50° SSW
Ariane H10 3.6 08:39:24 35° WSW 08:41:04 43° SSW 08:44:22 10° ESE
Cosmos 1271 Rocket 4.1 08:42:57 22° NW 08:42:57 22° NW 08:44:43 10° NNW
Cosmos 1603 4.4 08:38:18 10° NW 08:42:49 32° W 08:42:49 32° W
H-2A R/B 3.2 08:45:30 17° NNW 08:46:18 19° N 08:49:38 10° NE
Cosmos 1939 Rocket 3.0 08:43:48 10° NNE 08:47:41 68° E 08:50:14 20° S
Cosmos 192 4.5 08:44:54 19° S 08:48:23 72° ESE 08:53:15 10° NNE
Cosmos 2084 3.3 08:47:19 38° SSW 08:48:58 80° WNW 08:53:12 10° NNE
Cosmos 2151 3.7 08:45:21 10° S 08:49:21 50° E 08:53:20 10° NNE
Meteor 2-15 4.4 08:48:18 20° SSW 08:52:33 61° W 08:58:30 10° N
NOSS 3-1 (C) 2.8 08:52:37 34° SW 08:54:20 54° WNW 08:58:55 10° NNE
ARIANE 5 R/B 2.3 08:53:53 36° SW 08:54:57 51° S 09:05:19 10° E
Stardust Del rocket 4.0 08:53:13 19° WNW 08:56:07 76° NNE 09:03:43 10° ESE
Cosmos 1802 Rocket 4.0 08:51:28 10° S 08:57:50 80° W 09:04:15 10° N
Cosmos 1484 Rocket 3.0 08:57:48 10° N 09:01:26 46° WNW 09:03:02 28° SW
Lacrosse 5 3.2 09:02:20 19° W 09:04:03 23° WNW 09:08:02 10° N
ARIANE 5 R/B 3.6 08:59:22 10° NNE 09:04:07 43° ESE 09:08:52 10° S
ARIANE 5 R/B 4.4 09:00:35 19° WSW 09:06:23 32° SSW 09:09:50 10° SE
Meteor 2-14 Rocket 4.3 09:00:49 10° N 09:06:52 78° W 09:12:56 10° S
Cosmos 2173 Rocket 4.4 09:04:29 16° SSW 09:09:08 40° W 09:14:55 10° NNW
NOSS 3-1 (A) 3.0 09:07:13 11° SSW 09:11:40 68° ESE 09:16:20 10° NNE
Cosmos 1076 Rocket 3.7 09:10:43 10° S 09:14:53 71° E 09:19:04 10° N
USA 305 2.0 09:13:49 20° SW 09:15:59 77° WNW 09:18:56 10° NNE
Meteor 2-21 4.4 09:10:16 10° N 09:16:19 79° W 09:22:25 10° S
Cosmos-2242 3.9 09:14:30 10° NNW 09:18:11 28° W 09:21:50 10° SSW
USA 290 3.0 09:17:22 20° SW 09:18:59 33° WNW 09:21:55 10° N
ATLAS 3B R/B 2.9 09:13:09 10° SSW 09:19:37 73° ESE 09:26:37 10° NNE
Ariane H10+ 3.4 09:17:30 14° SW 09:20:45 34° SSE 09:35:36 10° E
Meteor 1-26 Rocket 4.1 09:18:07 10° N 09:23:28 86° W 09:28:54 10° S
Cosmos 1953 Rocket 3.8 09:20:09 10° SSW 09:24:16 45° W 09:28:23 10° NNW
Cosmos 1782 4.0 09:21:47 10° NW 09:24:42 21° W 09:27:15 12° SW
GPS 2-14 Rocket1 4.5 09:22:48 10° NW 09:24:43 16° N 09:26:37 10° NNE
GPS 2-15 Rocket1 3.4 09:21:23 12° W 09:25:41 47° SSW 09:30:12 10° SE
FUSE 4.4 09:22:14 10° WNW 09:27:33 63° NNE 09:32:51 10° ESE
GOES 2 Rocket 4.0 09:24:11 10° NW 09:28:48 60° NNE 09:34:42 10° ESE
ISS -2.8 09:27:28 14° WSW 09:29:48 32° NW 09:32:50 10° NNE
Cosmos 1833 Rocket 3.7 09:25:20 10° N 09:30:47 51° ENE 09:36:13 10° SSE
Ariane H10 3.8 09:27:00 11° WSW 09:32:28 23° S 09:35:20 10° SE
H-2A R/B 3.4 09:35:54 10° NNW 09:38:40 27° WNW 09:41:28 10° SW
Cosmos 1943 Rocket 3.3 09:35:24 10° SW 09:39:56 25° WNW 09:44:28 10° NNW
Meteor 2-21 Rocket 4.5 09:37:22 10° NNW 09:43:20 63° W 09:49:21 10° S
ARIANE 5 R/B 4.0 09:40:31 10° SW 09:43:26 37° SSE 09:54:32 10° E
USA 307 2.8 09:43:05 10° SW 09:46:39 46° WNW 09:49:49 10° NNE
ARGOS 3.8 09:43:26 10° N 09:48:24 38° WNW 09:53:22 10° SW
GPS 2-17 Rocket1 3.4 09:45:27 10° W 09:50:09 63° NNW 09:54:50 10° ENE
CZ-3 R/B 4.2 09:34:52 10° W 09:52:29 21° SW 10:00:14 10° S
